Date String (YYYY-MM-DD hh:mm:ss) UTC,Instrument flags,Ambient pressure (hPa),Sample flow (lpm),Bypass flow (lpm),Sample temperature (°C),Ambient temperature (°C),ASC tube jacket temperature (°C),LED temperature (°C),Box temperature (°C),Sample RH (%),Span deviation,Mass concentration (μg/m³),Mass concentration (μg/m³),Mass concentration (μg/m³)
DateTimeUTC,F1_M11,P_M11,Q1_M11,Q2_M11,T1_M11,T2_M11,T3_M11,T4_M11,T5_M11,U1_M11,ZSPAN_M11,X0_M11,X2_M11,X1_M11
2022-08-12 18:00:00,,0831.9,5.00,0.00,29.1,27.2,00.0,37.8,31.0,28.7,0000.0,0010.26,0004.52,0003.73
2022-08-12 18:01:00,,0831.9,4.99,0.00,29.1,27.1,00.0,37.8,30.9,28.9,0000.0,0010.51,0004.45,0003.71
2022-08-12 18:02:00,,0831.9,5.01,0.00,29.1,27.1,00.0,37.8,30.8,30.0,0000.0,0011.97,0004.40,0003.68
2022-08-12 18:03:00,,0832.0,4.99,0.00,29.0,27.2,00.0,37.8,30.8,30.4,0000.0,0011.79,0004.39,0003.67
2022-08-12 18:04:00,,0831.9,5.00,0.00,29.0,27.4,00.0,37.8,30.9,30.6,0000.0,0012.18,0004.39,0003.68
2022-08-12 18:05:00,,0831.8,4.99,0.00,29.1,27.6,00.0,37.8,30.9,30.4,0000.0,0012.66,0004.48,0003.70
2022-08-12 18:06:00,,0831.8,5.00,0.00,29.1,27.8,00.0,37.8,31.0,30.5,0000.0,0014.04,0004.55,0003.71
2022-08-12 18:07:00,,0831.8,5.00,0.00,29.1,27.9,00.0,37.8,31.1,29.6,0000.0,0014.03,0004.54,0003.72
2022-08-12 18:08:00,,0831.8,5.00,0.00,29.2,28.0,00.0,37.9,31.2,28.9,0000.0,0014.55,0004.56,0003.72
2022-08-12 18:09:00,,0831.7,5.01,0.00,29.2,27.6,00.0,37.8,31.0,28.8,0000.0,0014.69,0004.58,0003.72
2022-08-12 18:10:00,,0831.7,4.99,0.00,29.1,27.2,00.0,37.8,30.9,29.0,0000.0,0014.85,0004.61,0003.72
2022-08-12 18:11:00,,0831.7,5.01,0.00,29.1,27.1,00.0,37.8,30.9,28.8,0000.0,0014.87,0004.61,0003.71
2022-08-12 18:12:00,,0831.7,5.00,0.00,29.0,27.2,00.0,37.8,30.8,29.3,0000.0,0015.28,0004.60,0003.70
2022-08-12 18:13:00,,0831.7,4.99,0.00,29.0,27.3,00.0,37.8,30.8,29.2,0000.0,0013.84,0004.56,0003.71
2022-08-12 18:14:00,,0831.7,5.01,0.00,29.0,27.5,00.0,37.8,30.9,29.4,0000.0,0013.08,0004.48,0003.68
2022-08-12 18:15:00,,0831.8,5.01,0.00,29.1,27.7,00.0,37.8,31.0,28.1,0000.0,0012.58,0004.43,0003.65
2022-08-12 18:16:00,,0831.8,5.00,0.00,29.1,27.9,00.0,37.8,31.1,28.0,0000.0,0012.86,0004.37,0003.62
2022-08-12 18:17:00,,0831.8,5.00,0.00,29.2,28.1,00.0,37.9,31.2,28.1,0000.0,0011.53,0004.27,0003.59
2022-08-12 18:18:00,,0831.7,5.00,0.00,29.2,28.2,00.0,37.9,31.2,28.9,0000.0,0011.00,0004.26,0003.58
2022-08-12 18:19:00,,0831.7,5.00,0.00,29.2,27.8,00.0,37.9,31.1,29.4,0000.0,0010.87,0004.31,0003.58
2022-08-12 18:20:00,,0831.7,5.00,0.00,29.2,27.2,00.0,37.9,31.0,29.1,0000.0,0012.74,0004.37,0003.58
2022-08-12 18:21:00,,0831.7,4.99,0.00,29.2,27.1,00.0,37.8,31.0,29.3,0000.0,0014.53,0004.40,0003.59
2022-08-12 18:22:00,,0831.7,5.01,0.00,29.1,27.2,00.0,37.8,30.9,29.8,0000.0,0014.31,0004.41,0003.60
2022-08-12 18:23:00,,0831.7,5.00,0.00,29.1,27.3,00.0,37.8,30.9,30.0,0000.0,0013.79,0004.45,0003.61
2022-08-12 18:24:00,,0831.8,5.00,0.00,29.1,27.5,00.0,37.8,30.9,29.8,0000.0,0013.74,0004.50,0003.62
2022-08-12 18:25:00,,0831.7,5.00,0.00,29.1,27.7,00.0,37.9,31.0,30.1,0000.0,0014.25,0004.58,0003.65
2022-08-12 18:26:00,,0831.7,5.00,0.00,29.2,27.9,00.0,37.9,31.1,29.9,0000.0,0014.80,0004.65,0003.67
2022-08-12 18:27:00,,0831.7,5.00,0.00,29.2,27.9,00.0,37.9,31.1,29.6,0000.0,0014.55,0004.70,0003.70
2022-08-12 18:28:00,,0831.7,5.01,0.00,29.2,27.3,00.0,37.8,31.0,30.0,0000.0,0014.59,0004.71,0003.72
2022-08-12 18:29:00,,0831.7,4.98,0.00,29.1,27.0,00.0,37.8,30.8,30.5,0000.0,0014.89,0004.76,0003.74
2022-08-12 18:30:00,,0831.7,5.01,0.00,29.1,27.0,00.0,37.8,30.8,29.9,0000.0,0014.47,0004.75,0003.76
2022-08-12 18:31:00,,0831.6,4.99,0.00,29.0,27.1,00.0,37.8,30.8,29.7,0000.0,0012.95,0004.69,0003.77
2022-08-12 18:32:00,,0831.6,5.01,0.00,29.0,27.3,00.0,37.8,30.8,29.9,0000.0,0011.28,0004.63,0003.77
2022-08-12 18:33:00,,0831.6,4.99,0.00,29.0,27.5,00.0,37.8,30.9,29.5,0000.0,0011.76,0004.62,0003.78
2022-08-12 18:34:00,,0831.6,4.99,0.00,29.1,27.7,00.0,37.8,31.0,29.1,0000.0,0012.62,0004.61,0003.78
2022-08-12 18:35:00,,0831.6,5.00,0.00,29.1,27.9,00.0,37.9,31.1,28.8,0000.0,0012.51,0004.57,0003.78
2022-08-12 18:36:00,,0831.5,5.00,0.00,29.2,28.0,00.0,37.9,31.2,28.8,0000.0,0012.24,0004.53,0003.77
2022-08-12 18:37:00,,0831.5,5.01,0.00,29.2,27.7,00.0,37.8,31.1,28.9,0000.0,0011.31,0004.44,0003.76
2022-08-12 18:38:00,,0831.6,4.99,0.00,29.2,27.2,00.0,37.8,31.0,29.2,0000.0,0010.99,0004.42,0003.76
2022-08-12 18:39:00,,0831.5,5.01,0.00,29.1,27.1,00.0,37.8,30.9,29.6,0000.0,0011.47,0004.43,0003.76
2022-08-12 18:40:00,,0831.6,4.99,0.00,29.1,27.1,00.0,37.8,30.9,29.6,0000.0,0013.56,0004.44,0003.76
2022-08-12 18:41:00,,0831.6,5.00,0.00,29.1,27.3,00.0,37.8,30.8,29.5,0000.0,0015.73,0004.44,0003.76
2022-08-12 18:42:00,,0831.5,4.99,0.00,29.1,27.5,00.0,37.8,30.9,29.2,0000.0,0015.61,0004.46,0003.74
2022-08-12 18:43:00,,0831.5,5.01,0.00,29.1,27.7,00.0,37.8,31.0,29.4,0000.0,0015.42,0004.53,0003.75
2022-08-12 18:44:00,,0831.5,5.00,0.00,29.1,27.8,00.0,37.8,31.1,29.6,0000.0,0015.88,0004.58,0003.75
2022-08-12 18:45:00,,0831.5,5.00,0.00,29.2,28.0,00.0,37.9,31.1,29.5,0000.0,0015.50,0004.61,0003.74
2022-08-12 18:46:00,,0831.5,4.99,0.00,29.2,27.8,00.0,37.9,31.1,29.2,0000.0,0016.18,0004.63,0003.74
2022-08-12 18:47:00,,0831.5,5.00,0.00,29.1,27.2,00.0,37.8,30.9,29.3,0000.0,0016.34,0004.65,0003.75
2022-08-12 18:48:00,,0831.5,5.01,0.00,29.1,27.0,00.0,37.8,30.9,29.7,0000.0,0016.41,0004.68,0003.77
2022-08-12 18:49:00,,0831.5,4.98,0.00,29.1,27.1,00.0,37.8,30.8,29.5,0000.0,0016.60,0004.66,0003.77
2022-08-12 18:50:00,,0831.4,5.01,0.00,29.0,27.2,00.0,37.8,30.8,29.5,0000.0,0017.08,0004.64,0003.77
2022-08-12 18:51:00,,0831.4,5.00,0.00,29.0,27.4,00.0,37.8,30.9,29.2,0000.0,0014.68,0004.59,0003.76
2022-08-12 18:52:00,,0831.5,5.00,0.00,29.1,27.6,00.0,37.8,31.0,29.1,0000.0,0012.50,0004.57,0003.76
2022-08-12 18:53:00,,0831.5,4.99,0.00,29.1,27.8,00.0,37.8,31.0,29.0,0000.0,0013.03,0004.60,0003.77
2022-08-12 18:54:00,,0831.5,5.00,0.00,29.2,28.0,00.0,37.8,31.1,29.1,0000.0,0012.73,0004.56,0003.77
2022-08-12 18:55:00,,0831.5,5.01,0.00,29.2,27.7,00.0,37.8,31.1,29.1,0000.0,0012.12,0004.57,0003.78
2022-08-12 18:56:00,,0831.4,4.99,0.00,29.1,27.2,00.0,37.8,30.9,29.4,0000.0,0012.00,0004.55,0003.78
2022-08-12 18:57:00,,0831.4,5.01,0.00,29.1,26.9,00.0,37.8,30.9,29.9,0000.0,0010.96,0004.56,0003.78
2022-08-12 18:58:00,,0831.4,5.00,0.00,29.0,27.0,00.0,37.8,30.8,29.9,0000.0,0010.80,0004.55,0003.77
2022-08-12 18:59:00,,0831.4,5.01,0.00,29.0,27.2,00.0,37.8,30.7,29.5,0000.0,0010.85,0004.54,0003.75
